Main page
METAR-TAF:

METAR-TAF

Airports :

Oil platform

Heimdal, Norway

latitude: 59-34-12N, longitude: 2-13-48E, elevation: 10 m

Current weather observation

The report was made 13 minutes ago, at 23:50 UTC
Wind 16 kt from the North with gusts up to 26 kt, varying between North/Northwest and Northeast
Temperature 13°C
Humidity 72%
Pressure 1002 hPa
Visibility 10 km or more

METAR: ENHM 302350Z AUTO 35016G26KT 330V050 9999NDV BKN023/// 13/08 Q1002 W16/S/

Time: 02:03 (00:03 UTC)


TAF: missing

Weather observations and forecasts of more than 4000 airports (METAR and TAF reports).

The available stations are represented by yellow and red dots on the map.

Hover mouse over dot to see the name of the station.

Then click to see weather observations and forecasts.

To change the map : click on the green buttons with a black cross to zoom in, on the green button with a dash to zoom out, or on the green arrows for adjacent maps.


METAR-TAF: